contact:dominique.lefevre@mio.osupytheas.fr, maurice.libes@osupytheas.fr, didier.mallarino@osupytheas.fr
Project:EMSO http://www.emso-fr.org/EMSO-France
Depth: 2436.0 m
Title:EMSO Ligure Ouest : Data MII capteur MICROCAT
DateTime_Computer,Latitude,Longitude,Temperature,Conductivity,Pressure,DateTime_Instrument
DateTime_Computer,Latitude,Longitude,degC,S m-1,dbar,DateTime_Instrument
2020-08-21T00:02:31Z,42.805,6.029,13.2974,4.59976,2470.156,2020-8-21T02:03:20Z
2020-08-21T00:05:34Z,42.805,6.029,13.2977,4.59977,2470.171,2020-8-21T02:06:24Z
2020-08-21T00:08:37Z,42.805,6.029,13.2979,4.59978,2470.18,2020-8-21T02:09:27Z
2020-08-21T00:11:41Z,42.805,6.029,13.2973,4.59979,2470.156,2020-8-21T02:12:30Z
2020-08-21T00:14:44Z,42.805,6.029,13.2972,4.59978,2470.171,2020-8-21T02:15:34Z
2020-08-21T00:17:47Z,42.805,6.029,13.2974,4.59976,2470.133,2020-8-21T02:18:37Z
2020-08-21T00:20:50Z,42.805,6.029,13.2972,4.59978,2470.156,2020-8-21T02:21:40Z
2020-08-21T00:23:54Z,42.805,6.029,13.2975,4.59978,2470.156,2020-8-21T02:24:43Z
2020-08-21T00:26:57Z,42.805,6.029,13.2977,4.59979,2470.147,2020-8-21T02:27:46Z
2020-08-21T00:30:00Z,42.805,6.029,13.2972,4.59979,2470.133,2020-8-21T02:30:50Z
2020-08-21T00:33:04Z,42.805,6.029,13.2973,4.59978,2470.147,2020-8-21T02:33:53Z
2020-08-21T00:36:07Z,42.805,6.029,13.2978,4.59978,2470.087,2020-8-21T02:36:56Z
2020-08-21T00:39:10Z,42.805,6.029,13.2976,4.59978,2470.147,2020-8-21T02:40:00Z
2020-08-21T00:42:13Z,42.805,6.029,13.2972,4.59976,2470.124,2020-8-21T02:43:03Z
2020-08-21T00:45:17Z,42.805,6.029,13.2974,4.59976,2470.11,2020-8-21T02:46:06Z
2020-08-21T00:48:20Z,42.805,6.029,13.2971,4.59976,2470.124,2020-8-21T02:49:09Z
2020-08-21T00:51:23Z,42.805,6.029,13.2974,4.59978,2470.1,2020-8-21T02:52:13Z
2020-08-21T00:54:26Z,42.805,6.029,13.2974,4.59977,2470.1,2020-8-21T02:55:16Z
2020-08-21T00:57:29Z,42.805,6.029,13.2977,4.59978,2470.11,2020-8-21T02:58:19Z
2020-08-21T01:00:33Z,42.805,6.029,13.2975,4.59976,2470.124,2020-8-21T03:01:22Z
2020-08-21T01:03:36Z,42.805,6.029,13.2975,4.59976,2470.11,2020-8-21T03:04:25Z
2020-08-21T01:06:39Z,42.805,6.029,13.2974,4.59976,2470.063,2020-8-21T03:07:29Z
2020-08-21T01:09:42Z,42.805,6.029,13.2980,4.59976,2470.087,2020-8-21T03:10:32Z
2020-08-21T01:12:45Z,42.805,6.029,13.2978,4.59976,2470.087,2020-8-21T03:13:35Z
2020-08-21T01:15:49Z,42.805,6.029,13.2975,4.59976,2470.11,2020-8-21T03:16:38Z
2020-08-21T01:18:52Z,42.805,6.029,13.2972,4.59976,2470.063,2020-8-21T03:19:42Z
2020-08-21T01:21:55Z,42.805,6.029,13.2979,4.59975,2470.063,2020-8-21T03:22:45Z
2020-08-21T01:24:58Z,42.805,6.029,13.2976,4.59977,2470.063,2020-8-21T03:25:48Z
2020-08-21T01:28:01Z,42.805,6.029,13.2974,4.59976,2470.11,2020-8-21T03:28:51Z
2020-08-21T01:31:05Z,42.805,6.029,13.2977,4.59976,2470.077,2020-8-21T03:31:54Z
2020-08-21T01:34:08Z,42.805,6.029,13.2979,4.59976,2470.073,2020-8-21T03:34:58Z
2020-08-21T01:37:11Z,42.805,6.029,13.2975,4.59975,2470.053,2020-8-21T03:38:01Z
2020-08-21T01:40:14Z,42.805,6.029,13.2975,4.59977,2470.077,2020-8-21T03:41:04Z
2020-08-21T01:43:18Z,42.805,6.029,13.2975,4.59977,2470.053,2020-8-21T03:44:07Z
2020-08-21T01:46:21Z,42.805,6.029,13.2975,4.59978,2470.053,2020-8-21T03:47:10Z
2020-08-21T01:49:24Z,42.805,6.029,13.2976,4.59976,2470.063,2020-8-21T03:50:14Z
2020-08-21T01:52:27Z,42.805,6.029,13.2974,4.59978,2470.04,2020-8-21T03:53:17Z
2020-08-21T01:55:31Z,42.805,6.029,13.2973,4.59976,2470.063,2020-8-21T03:56:20Z
2020-08-21T01:58:34Z,42.805,6.029,13.2976,4.59974,2470.087,2020-8-21T03:59:24Z
2020-08-21T02:01:37Z,42.805,6.029,13.2970,4.59976,2470.03,2020-8-21T04:02:27Z
2020-08-21T02:04:40Z,42.805,6.029,13.2976,4.59975,2470.04,2020-8-21T04:05:30Z
2020-08-21T02:07:44Z,42.805,6.029,13.2971,4.59976,2470.04,2020-8-21T04:08:33Z
2020-08-21T02:10:47Z,42.805,6.029,13.2972,4.59976,2470.04,2020-8-21T04:11:37Z
2020-08-21T02:13:50Z,42.805,6.029,13.2974,4.59976,2470.063,2020-8-21T04:14:40Z
2020-08-21T02:16:54Z,42.805,6.029,13.2974,4.59976,2470.04,2020-8-21T04:17:43Z
2020-08-21T02:19:57Z,42.805,6.029,13.2971,4.59974,2470.049,2020-8-21T04:20:47Z
2020-08-21T02:23:00Z,42.805,6.029,13.2979,4.59976,2470.063,2020-8-21T04:23:50Z
2020-08-21T02:26:03Z,42.805,6.029,13.2971,4.59975,2470.04,2020-8-21T04:26:53Z
2020-08-21T02:29:07Z,42.805,6.029,13.2975,4.59974,2470.04,2020-8-21T04:29:56Z
2020-08-21T02:32:10Z,42.805,6.029,13.2974,4.59975,2470.063,2020-8-21T04:33:00Z
2020-08-21T02:35:13Z,42.805,6.029,13.2974,4.59975,2470.04,2020-8-21T04:36:03Z
2020-08-21T02:38:16Z,42.805,6.029,13.2977,4.59974,2470.017,2020-8-21T04:39:06Z
2020-08-21T02:41:20Z,42.805,6.029,13.2976,4.59974,2470.04,2020-8-21T04:42:09Z
2020-08-21T02:44:23Z,42.805,6.029,13.2969,4.59974,2470.03,2020-8-21T04:45:13Z
2020-08-21T02:47:26Z,42.805,6.029,13.2976,4.59976,2470.04,2020-8-21T04:48:16Z
2020-08-21T02:50:29Z,42.805,6.029,13.2972,4.59976,2470.017,2020-8-21T04:51:19Z
2020-08-21T02:53:33Z,42.805,6.029,13.2977,4.59975,2470.03,2020-8-21T04:54:22Z
2020-08-21T02:56:36Z,42.805,6.029,13.2978,4.59975,2470.017,2020-8-21T04:57:26Z
2020-08-21T02:59:39Z,42.805,6.029,13.2976,4.59976,2469.993,2020-8-21T05:00:29Z
2020-08-21T03:02:42Z,42.805,6.029,13.2974,4.59975,2470.017,2020-8-21T05:03:32Z
2020-08-21T03:05:45Z,42.805,6.029,13.2972,4.59976,2470.053,2020-8-21T05:06:35Z
2020-08-21T03:08:49Z,42.805,6.029,13.2975,4.59976,2470.017,2020-8-21T05:09:38Z
2020-08-21T03:11:52Z,42.805,6.029,13.2970,4.59976,2470.063,2020-8-21T05:12:42Z
2020-08-21T03:14:55Z,42.805,6.029,13.2972,4.59975,2470.017,2020-8-21T05:15:45Z
2020-08-21T03:17:59Z,42.805,6.029,13.2975,4.59976,2469.993,2020-8-21T05:18:48Z
2020-08-21T03:21:02Z,42.805,6.029,13.2976,4.59975,2470.017,2020-8-21T05:21:51Z
2020-08-21T03:24:05Z,42.805,6.029,13.2971,4.59978,2470.03,2020-8-21T05:24:55Z
2020-08-21T03:27:08Z,42.805,6.029,13.2975,4.59975,2470.017,2020-8-21T05:27:58Z
2020-08-21T03:30:11Z,42.805,6.029,13.2975,4.59975,2470.04,2020-8-21T05:31:01Z
2020-08-21T03:33:15Z,42.805,6.029,13.2976,4.59975,2470.017,2020-8-21T05:34:04Z
2020-08-21T03:36:18Z,42.805,6.029,13.2975,4.59976,2469.956,2020-8-21T05:37:08Z
2020-08-21T03:39:21Z,42.805,6.029,13.2977,4.59976,2470.017,2020-8-21T05:40:11Z
2020-08-21T03:42:25Z,42.805,6.029,13.2976,4.59977,2469.993,2020-8-21T05:43:14Z
2020-08-21T03:45:28Z,42.805,6.029,13.2975,4.59975,2470.017,2020-8-21T05:46:17Z
2020-08-21T03:48:31Z,42.805,6.029,13.2973,4.59976,2470.053,2020-8-21T05:49:21Z
2020-08-21T03:51:34Z,42.805,6.029,13.2974,4.59976,2470.03,2020-8-21T05:52:24Z
2020-08-21T03:54:37Z,42.805,6.029,13.2974,4.59975,2469.993,2020-8-21T05:55:27Z
2020-08-21T03:57:41Z,42.805,6.029,13.2970,4.59975,2470.03,2020-8-21T05:58:30Z
2020-08-21T04:00:44Z,42.805,6.029,13.2972,4.59975,2470.017,2020-8-21T06:01:34Z
2020-08-21T04:03:47Z,42.805,6.029,13.2975,4.59976,2470.017,2020-8-21T06:04:37Z
2020-08-21T04:06:50Z,42.805,6.029,13.2977,4.59975,2470.007,2020-8-21T06:07:40Z
2020-08-21T04:09:54Z,42.805,6.029,13.2973,4.59975,2470.04,2020-8-21T06:10:43Z
2020-08-21T04:12:57Z,42.805,6.029,13.2974,4.59976,2469.993,2020-8-21T06:13:47Z
2020-08-21T04:16:00Z,42.805,6.029,13.2976,4.59977,2470.017,2020-8-21T06:16:50Z
2020-08-21T04:19:03Z,42.805,6.029,13.2976,4.59976,2470.017,2020-8-21T06:19:53Z
2020-08-21T04:22:06Z,42.805,6.029,13.2971,4.59976,2470.04,2020-8-21T06:22:56Z
2020-08-21T04:25:10Z,42.805,6.029,13.2973,4.59975,2470.017,2020-8-21T06:25:59Z
2020-08-21T04:28:13Z,42.805,6.029,13.2976,4.59975,2470.017,2020-8-21T06:29:03Z
2020-08-21T04:31:16Z,42.805,6.029,13.2974,4.59977,2470.017,2020-8-21T06:32:06Z
2020-08-21T04:34:19Z,42.805,6.029,13.2975,4.59976,2470.026,2020-8-21T06:35:09Z
2020-08-21T04:37:23Z,42.805,6.029,13.2975,4.59976,2470.03,2020-8-21T06:38:12Z
2020-08-21T04:40:26Z,42.805,6.029,13.2973,4.59975,2470.04,2020-8-21T06:41:16Z
2020-08-21T04:43:29Z,42.805,6.029,13.2972,4.59975,2470.063,2020-8-21T06:44:19Z
2020-08-21T04:46:33Z,42.805,6.029,13.2973,4.59976,2470.053,2020-8-21T06:47:22Z
2020-08-21T04:49:36Z,42.805,6.029,13.2974,4.59976,2470.017,2020-8-21T06:50:25Z
2020-08-21T04:52:39Z,42.805,6.029,13.2974,4.59976,2470.017,2020-8-21T06:53:29Z
2020-08-21T04:55:43Z,42.805,6.029,13.2972,4.59976,2470.017,2020-8-21T06:56:32Z
2020-08-21T04:58:46Z,42.805,6.029,13.2972,4.59978,2470.04,2020-8-21T06:59:35Z
2020-08-21T05:01:49Z,42.805,6.029,13.2976,4.59976,2470.063,2020-8-21T07:02:39Z
2020-08-21T05:04:52Z,42.805,6.029,13.2975,4.59975,2470.049,2020-8-21T07:05:42Z
2020-08-21T05:07:55Z,42.805,6.029,13.2973,4.59975,2470.063,2020-8-21T07:08:45Z
2020-08-21T05:10:59Z,42.805,6.029,13.2974,4.59976,2470.053,2020-8-21T07:11:48Z
2020-08-21T05:14:02Z,42.805,6.029,13.2973,4.59976,2470.063,2020-8-21T07:14:52Z
2020-08-21T05:17:05Z,42.805,6.029,13.2974,4.59975,2470.04,2020-8-21T07:17:55Z
2020-08-21T05:20:09Z,42.805,6.029,13.2974,4.59976,2470.063,2020-8-21T07:20:58Z
2020-08-21T05:23:12Z,42.805,6.029,13.2974,4.59977,2470.063,2020-8-21T07:24:01Z
2020-08-21T05:26:15Z,42.805,6.029,13.2974,4.59976,2470.063,2020-8-21T07:27:05Z
2020-08-21T05:29:18Z,42.805,6.029,13.2976,4.59976,2470.04,2020-8-21T07:30:08Z
2020-08-21T05:32:21Z,42.805,6.029,13.2974,4.59976,2470.063,2020-8-21T07:33:11Z
2020-08-21T05:35:25Z,42.805,6.029,13.2975,4.59976,2470.087,2020-8-21T07:36:14Z
2020-08-21T05:38:28Z,42.805,6.029,13.2978,4.59975,2470.063,2020-8-21T07:39:18Z
2020-08-21T05:41:31Z,42.805,6.029,13.2975,4.59976,2470.11,2020-8-21T07:42:21Z
2020-08-21T05:44:35Z,42.805,6.029,13.2976,4.59976,2470.077,2020-8-21T07:45:24Z
2020-08-21T05:47:38Z,42.805,6.029,13.2975,4.59976,2470.133,2020-8-21T07:48:27Z
2020-08-21T05:50:41Z,42.805,6.029,13.2977,4.59976,2470.1,2020-8-21T07:51:31Z
2020-08-21T05:53:44Z,42.805,6.029,13.2977,4.59976,2470.063,2020-8-21T07:54:34Z
2020-08-21T05:56:47Z,42.805,6.029,13.2975,4.59976,2470.11,2020-8-21T07:57:37Z
2020-08-21T05:59:51Z,42.805,6.029,13.2977,4.59977,2470.11,2020-8-21T08:00:40Z
2020-08-21T06:02:54Z,42.805,6.029,13.2973,4.59976,2470.124,2020-8-21T08:03:44Z
2020-08-21T06:05:57Z,42.805,6.029,13.2973,4.59976,2470.1,2020-8-21T08:06:47Z
2020-08-21T06:09:01Z,42.805,6.029,13.2974,4.59976,2470.11,2020-8-21T08:09:50Z
2020-08-21T06:12:04Z,42.805,6.029,13.2974,4.59976,2470.124,2020-8-21T08:12:53Z
2020-08-21T06:15:07Z,42.805,6.029,13.2977,4.59978,2470.11,2020-8-21T08:15:57Z
2020-08-21T06:18:10Z,42.805,6.029,13.2974,4.59976,2470.11,2020-8-21T08:19:00Z
2020-08-21T06:21:13Z,42.805,6.029,13.2972,4.59976,2470.11,2020-8-21T08:22:03Z
2020-08-21T06:24:17Z,42.805,6.029,13.2975,4.59976,2470.156,2020-8-21T08:25:06Z
2020-08-21T06:27:20Z,42.805,6.029,13.2974,4.59976,2470.133,2020-8-21T08:28:10Z
2020-08-21T06:30:23Z,42.805,6.029,13.2977,4.59976,2470.133,2020-8-21T08:31:13Z
2020-08-21T06:33:26Z,42.805,6.029,13.2975,4.59977,2470.1,2020-8-21T08:34:16Z
2020-08-21T06:36:30Z,42.805,6.029,13.2978,4.59976,2470.156,2020-8-21T08:37:19Z
2020-08-21T06:39:33Z,42.805,6.029,13.2974,4.59976,2470.18,2020-8-21T08:40:23Z
2020-08-21T06:42:36Z,42.805,6.029,13.2977,4.59976,2470.156,2020-8-21T08:43:26Z
2020-08-21T06:45:40Z,42.805,6.029,13.2976,4.59976,2470.156,2020-8-21T08:46:29Z
2020-08-21T06:48:43Z,42.805,6.029,13.2975,4.59976,2470.147,2020-8-21T08:49:32Z
2020-08-21T06:51:46Z,42.805,6.029,13.2976,4.59977,2470.18,2020-8-21T08:52:36Z
2020-08-21T06:54:49Z,42.805,6.029,13.2977,4.59977,2470.18,2020-8-21T08:55:39Z
2020-08-21T06:57:53Z,42.805,6.029,13.2974,4.59976,2470.156,2020-8-21T08:58:42Z
2020-08-21T07:00:56Z,42.805,6.029,13.2974,4.59976,2470.203,2020-8-21T09:01:45Z
2020-08-21T07:03:59Z,42.805,6.029,13.2977,4.59976,2470.18,2020-8-21T09:04:49Z
2020-08-21T07:07:02Z,42.805,6.029,13.2976,4.59976,2470.166,2020-8-21T09:07:52Z
2020-08-21T07:10:05Z,42.805,6.029,13.2976,4.59978,2470.18,2020-8-21T09:10:55Z
2020-08-21T07:13:09Z,42.805,6.029,13.2975,4.59978,2470.203,2020-8-21T09:13:58Z
2020-08-21T07:16:12Z,42.805,6.029,13.2976,4.59979,2470.18,2020-8-21T09:17:02Z
2020-08-21T07:19:15Z,42.805,6.029,13.2974,4.59978,2470.18,2020-8-21T09:20:05Z
2020-08-21T07:22:18Z,42.805,6.029,13.2978,4.59977,2470.217,2020-8-21T09:23:08Z
2020-08-21T07:25:22Z,42.805,6.029,13.2976,4.59976,2470.194,2020-8-21T09:26:11Z
2020-08-21T07:28:25Z,42.805,6.029,13.2977,4.59976,2470.18,2020-8-21T09:29:14Z
2020-08-21T07:31:28Z,42.805,6.029,13.2973,4.59978,2470.18,2020-8-21T09:32:18Z
2020-08-21T07:34:31Z,42.805,6.029,13.2972,4.59976,2470.194,2020-8-21T09:35:21Z
2020-08-21T07:37:34Z,42.805,6.029,13.2974,4.59977,2470.171,2020-8-21T09:38:24Z
2020-08-21T07:40:38Z,42.805,6.029,13.2976,4.59979,2470.166,2020-8-21T09:41:27Z
2020-08-21T07:43:41Z,42.805,6.029,13.2976,4.59978,2470.203,2020-8-21T09:44:31Z
2020-08-21T07:46:44Z,42.805,6.029,13.2974,4.59976,2470.203,2020-8-21T09:47:34Z
2020-08-21T07:49:47Z,42.805,6.029,13.2971,4.59978,2470.18,2020-8-21T09:50:37Z
2020-08-21T07:52:51Z,42.805,6.029,13.2975,4.59978,2470.203,2020-8-21T09:53:40Z
2020-08-21T07:55:54Z,42.805,6.029,13.2973,4.59978,2470.18,2020-8-21T09:56:44Z
2020-08-21T07:58:57Z,42.805,6.029,13.2978,4.59976,2470.24,2020-8-21T09:59:47Z
2020-08-21T08:02:01Z,42.805,6.029,13.2976,4.59977,2470.217,2020-8-21T10:02:50Z
2020-08-21T08:05:04Z,42.805,6.029,13.2977,4.59978,2470.217,2020-8-21T10:05:54Z
2020-08-21T08:08:07Z,42.805,6.029,13.2976,4.59976,2470.203,2020-8-21T10:08:57Z
2020-08-21T08:11:10Z,42.805,6.029,13.2976,4.59978,2470.194,2020-8-21T10:12:00Z
2020-08-21T08:14:14Z,42.805,6.029,13.2975,4.59980,2470.18,2020-8-21T10:15:03Z
2020-08-21T08:17:17Z,42.805,6.029,13.2974,4.59977,2470.166,2020-8-21T10:18:06Z
2020-08-21T08:20:20Z,42.805,6.029,13.2974,4.59977,2470.203,2020-8-21T10:21:10Z
2020-08-21T08:23:23Z,42.805,6.029,13.2971,4.59978,2470.227,2020-8-21T10:24:13Z
2020-08-21T08:26:26Z,42.805,6.029,13.2976,4.59978,2470.203,2020-8-21T10:27:16Z
2020-08-21T08:29:30Z,42.805,6.029,13.2976,4.59976,2470.227,2020-8-21T10:30:20Z
2020-08-21T08:32:33Z,42.805,6.029,13.2975,4.59976,2470.203,2020-8-21T10:33:23Z
2020-08-21T08:35:36Z,42.805,6.029,13.2972,4.59979,2470.203,2020-8-21T10:36:26Z
2020-08-21T08:38:40Z,42.805,6.029,13.2976,4.59979,2470.203,2020-8-21T10:39:29Z
2020-08-21T08:41:43Z,42.805,6.029,13.2972,4.59978,2470.203,2020-8-21T10:42:33Z
2020-08-21T08:44:46Z,42.805,6.029,13.2976,4.59978,2470.18,2020-8-21T10:45:36Z
2020-08-21T08:47:50Z,42.805,6.029,13.2974,4.59978,2470.217,2020-8-21T10:48:39Z
2020-08-21T08:50:53Z,42.805,6.029,13.2976,4.59976,2470.203,2020-8-21T10:51:43Z
2020-08-21T08:53:56Z,42.805,6.029,13.2975,4.59978,2470.166,2020-8-21T10:54:46Z
2020-08-21T08:57:00Z,42.805,6.029,13.2979,4.59978,2470.217,2020-8-21T10:57:49Z
2020-08-21T09:00:03Z,42.805,6.029,13.2974,4.59978,2470.24,2020-8-21T11:00:53Z
2020-08-21T09:03:06Z,42.805,6.029,13.2977,4.59976,2470.18,2020-8-21T11:03:56Z
2020-08-21T09:06:09Z,42.805,6.029,13.2975,4.59977,2470.213,2020-8-21T11:06:59Z
2020-08-21T09:09:13Z,42.805,6.029,13.2975,4.59978,2470.18,2020-8-21T11:10:02Z
2020-08-21T09:12:16Z,42.805,6.029,13.2974,4.59978,2470.194,2020-8-21T11:13:05Z
2020-08-21T09:15:19Z,42.805,6.029,13.2978,4.59978,2470.156,2020-8-21T11:16:09Z
2020-08-21T09:18:22Z,42.805,6.029,13.2975,4.59978,2470.18,2020-8-21T11:19:12Z
2020-08-21T09:21:26Z,42.805,6.029,13.2979,4.59978,2470.18,2020-8-21T11:22:15Z
2020-08-21T09:24:29Z,42.805,6.029,13.2976,4.59978,2470.171,2020-8-21T11:25:19Z
2020-08-21T09:27:32Z,42.805,6.029,13.2976,4.59979,2470.18,2020-8-21T11:28:22Z
2020-08-21T09:30:35Z,42.805,6.029,13.2976,4.59978,2470.217,2020-8-21T11:31:25Z
2020-08-21T09:33:39Z,42.805,6.029,13.2977,4.59979,2470.18,2020-8-21T11:34:28Z
2020-08-21T09:36:42Z,42.805,6.029,13.2974,4.59978,2470.18,2020-8-21T11:37:31Z
2020-08-21T09:39:45Z,42.805,6.029,13.2978,4.59977,2470.18,2020-8-21T11:40:35Z
2020-08-21T09:42:48Z,42.805,6.029,13.2977,4.59978,2470.156,2020-8-21T11:43:38Z
2020-08-21T09:45:52Z,42.805,6.029,13.2976,4.59976,2470.171,2020-8-21T11:46:41Z
2020-08-21T09:48:55Z,42.805,6.029,13.2973,4.59978,2470.203,2020-8-21T11:49:44Z
2020-08-21T09:51:58Z,42.805,6.029,13.2976,4.59979,2470.18,2020-8-21T11:52:48Z
2020-08-21T09:55:01Z,42.805,6.029,13.2975,4.59979,2470.18,2020-8-21T11:55:51Z
2020-08-21T09:58:04Z,42.805,6.029,13.2974,4.59979,2470.18,2020-8-21T11:58:54Z
2020-08-21T10:01:08Z,42.805,6.029,13.2976,4.59978,2470.194,2020-8-21T12:01:57Z
2020-08-21T10:04:11Z,42.805,6.029,13.2977,4.59980,2470.194,2020-8-21T12:05:00Z
2020-08-21T10:07:14Z,42.805,6.029,13.2974,4.59983,2470.194,2020-8-21T12:08:04Z
2020-08-21T10:10:17Z,42.805,6.029,13.2976,4.59978,2470.156,2020-8-21T12:11:07Z
2020-08-21T10:13:21Z,42.805,6.029,13.2975,4.59976,2470.194,2020-8-21T12:14:10Z
2020-08-21T10:16:24Z,42.805,6.029,13.2977,4.59977,2470.156,2020-8-21T12:17:14Z
2020-08-21T10:19:27Z,42.805,6.029,13.2977,4.59978,2470.18,2020-8-21T12:20:17Z
2020-08-21T10:22:30Z,42.805,6.029,13.2976,4.59978,2470.171,2020-8-21T12:23:20Z
2020-08-21T10:25:34Z,42.805,6.029,13.2979,4.59978,2470.171,2020-8-21T12:26:23Z
2020-08-21T10:28:37Z,42.805,6.029,13.2974,4.59978,2470.156,2020-8-21T12:29:26Z
2020-08-21T10:31:40Z,42.805,6.029,13.2974,4.59979,2470.171,2020-8-21T12:32:30Z
2020-08-21T10:34:43Z,42.805,6.029,13.2979,4.59978,2470.156,2020-8-21T12:35:33Z
2020-08-21T10:37:47Z,42.805,6.029,13.2980,4.59979,2470.147,2020-8-21T12:38:36Z
2020-08-21T10:40:50Z,42.805,6.029,13.2978,4.59978,2470.11,2020-8-21T12:41:40Z
2020-08-21T10:43:53Z,42.805,6.029,13.2975,4.59978,2470.133,2020-8-21T12:44:43Z
2020-08-21T10:46:56Z,42.805,6.029,13.2972,4.59978,2470.171,2020-8-21T12:47:46Z
2020-08-21T10:50:00Z,42.805,6.029,13.2974,4.59977,2470.133,2020-8-21T12:50:49Z
2020-08-21T10:53:03Z,42.805,6.029,13.2976,4.59978,2470.133,2020-8-21T12:53:53Z
2020-08-21T10:56:06Z,42.805,6.029,13.2976,4.59980,2470.133,2020-8-21T12:56:56Z
2020-08-21T10:59:10Z,42.805,6.029,13.2977,4.59980,2470.11,2020-8-21T12:59:59Z
2020-08-21T11:02:13Z,42.805,6.029,13.2976,4.59979,2470.133,2020-8-21T13:03:03Z
2020-08-21T11:05:16Z,42.805,6.029,13.2976,4.59981,2470.147,2020-8-21T13:06:06Z
2020-08-21T11:08:19Z,42.805,6.029,13.2975,4.59978,2470.11,2020-8-21T13:09:09Z
2020-08-21T11:11:23Z,42.805,6.029,13.2979,4.59977,2470.133,2020-8-21T13:12:12Z
2020-08-21T11:14:26Z,42.805,6.029,13.2972,4.59978,2470.1,2020-8-21T13:15:16Z
2020-08-21T11:17:29Z,42.805,6.029,13.2972,4.59977,2470.11,2020-8-21T13:18:19Z
2020-08-21T11:20:32Z,42.805,6.029,13.2977,4.59979,2470.133,2020-8-21T13:21:22Z
2020-08-21T11:23:36Z,42.805,6.029,13.2979,4.59979,2470.133,2020-8-21T13:24:25Z
2020-08-21T11:26:39Z,42.805,6.029,13.2974,4.59979,2470.087,2020-8-21T13:27:29Z
2020-08-21T11:29:42Z,42.805,6.029,13.2975,4.59978,2470.1,2020-8-21T13:30:32Z
2020-08-21T11:32:45Z,42.805,6.029,13.2978,4.59980,2470.087,2020-8-21T13:33:35Z
2020-08-21T11:35:49Z,42.805,6.029,13.2977,4.59978,2470.11,2020-8-21T13:36:38Z
2020-08-21T11:38:52Z,42.805,6.029,13.2976,4.59978,2470.11,2020-8-21T13:39:42Z
2020-08-21T11:41:55Z,42.805,6.029,13.2975,4.59981,2470.124,2020-8-21T13:42:45Z
2020-08-21T11:44:58Z,42.805,6.029,13.2975,4.59978,2470.133,2020-8-21T13:45:48Z
2020-08-21T11:48:02Z,42.805,6.029,13.2976,4.59980,2470.087,2020-8-21T13:48:51Z
2020-08-21T11:51:05Z,42.805,6.029,13.2977,4.59978,2470.087,2020-8-21T13:51:55Z
2020-08-21T11:54:08Z,42.805,6.029,13.2974,4.59978,2470.1,2020-8-21T13:54:58Z
2020-08-21T11:57:11Z,42.805,6.029,13.2976,4.59978,2470.087,2020-8-21T13:58:01Z
2020-08-21T12:00:14Z,42.805,6.029,13.2976,4.59978,2470.1,2020-8-21T14:01:04Z
2020-08-21T12:03:18Z,42.805,6.029,13.2976,4.59978,2470.1,2020-8-21T14:04:07Z
2020-08-21T12:06:21Z,42.805,6.029,13.2976,4.59978,2470.063,2020-8-21T14:07:11Z
2020-08-21T12:09:24Z,42.805,6.029,13.2976,4.59978,2470.087,2020-8-21T14:10:14Z
2020-08-21T12:12:28Z,42.805,6.029,13.2975,4.59978,2470.077,2020-8-21T14:13:17Z
2020-08-21T12:15:31Z,42.805,6.029,13.2976,4.59977,2470.063,2020-8-21T14:16:21Z
2020-08-21T12:18:34Z,42.805,6.029,13.2976,4.59978,2470.063,2020-8-21T14:19:24Z
2020-08-21T12:21:37Z,42.805,6.029,13.2977,4.59978,2470.077,2020-8-21T14:22:27Z
2020-08-21T12:24:41Z,42.805,6.029,13.2976,4.59976,2470.063,2020-8-21T14:25:30Z
2020-08-21T12:27:44Z,42.805,6.029,13.2979,4.59977,2470.077,2020-8-21T14:28:33Z
2020-08-21T12:30:47Z,42.805,6.029,13.2977,4.59978,2470.087,2020-8-21T14:31:37Z
2020-08-21T12:33:50Z,42.805,6.029,13.2974,4.59981,2470.063,2020-8-21T14:34:40Z
2020-08-21T12:36:54Z,42.805,6.029,13.2974,4.59978,2470.063,2020-8-21T14:37:43Z
2020-08-21T12:39:57Z,42.805,6.029,13.2973,4.59978,2470.063,2020-8-21T14:40:47Z
2020-08-21T12:43:00Z,42.805,6.029,13.2974,4.59978,2470.04,2020-8-21T14:43:50Z
2020-08-21T12:46:03Z,42.805,6.029,13.2975,4.59976,2470.063,2020-8-21T14:46:53Z
2020-08-21T12:49:07Z,42.805,6.029,13.2976,4.59978,2470.026,2020-8-21T14:49:56Z
2020-08-21T12:52:10Z,42.805,6.029,13.2976,4.59978,2470.049,2020-8-21T14:53:00Z
2020-08-21T12:55:13Z,42.805,6.029,13.2976,4.59978,2470.063,2020-8-21T14:56:03Z
2020-08-21T12:58:16Z,42.805,6.029,13.2975,4.59977,2470.017,2020-8-21T14:59:06Z
2020-08-21T13:01:20Z,42.805,6.029,13.2975,4.59978,2469.993,2020-8-21T15:02:09Z
2020-08-21T13:04:23Z,42.805,6.029,13.2975,4.59978,2470.017,2020-8-21T15:05:13Z
2020-08-21T13:07:26Z,42.805,6.029,13.2973,4.59978,2470.04,2020-8-21T15:08:16Z
2020-08-21T13:10:29Z,42.805,6.029,13.2974,4.59979,2469.993,2020-8-21T15:11:19Z
2020-08-21T13:13:33Z,42.805,6.029,13.2979,4.59978,2470.017,2020-8-21T15:14:22Z
2020-08-21T13:16:36Z,42.805,6.029,13.2973,4.59976,2470.053,2020-8-21T15:17:26Z
2020-08-21T13:19:39Z,42.805,6.029,13.2976,4.59976,2470.063,2020-8-21T15:20:29Z
2020-08-21T13:22:43Z,42.805,6.029,13.2974,4.59978,2470.053,2020-8-21T15:23:32Z
2020-08-21T13:25:46Z,42.805,6.029,13.2976,4.59977,2470.053,2020-8-21T15:26:36Z
2020-08-21T13:28:49Z,42.805,6.029,13.2979,4.59978,2470.04,2020-8-21T15:29:39Z
2020-08-21T13:31:53Z,42.805,6.029,13.2979,4.59978,2470.017,2020-8-21T15:32:42Z
2020-08-21T13:34:56Z,42.805,6.029,13.2976,4.59980,2470.063,2020-8-21T15:35:45Z
2020-08-21T13:37:59Z,42.805,6.029,13.2977,4.59978,2470.04,2020-8-21T15:38:49Z
2020-08-21T13:41:02Z,42.805,6.029,13.2976,4.59978,2470.017,2020-8-21T15:41:52Z
2020-08-21T13:44:05Z,42.805,6.029,13.2977,4.59978,2470.03,2020-8-21T15:44:55Z
2020-08-21T13:47:09Z,42.805,6.029,13.2974,4.59979,2470.017,2020-8-21T15:47:58Z
2020-08-21T13:50:12Z,42.805,6.029,13.2977,4.59976,2470.03,2020-8-21T15:51:02Z
2020-08-21T13:53:15Z,42.805,6.029,13.2976,4.59976,2470.017,2020-8-21T15:54:05Z
2020-08-21T13:56:18Z,42.805,6.029,13.2978,4.59976,2470.03,2020-8-21T15:57:08Z
2020-08-21T13:59:22Z,42.805,6.029,13.2976,4.59978,2469.993,2020-8-21T16:00:11Z
2020-08-21T14:02:25Z,42.805,6.029,13.2977,4.59977,2470.007,2020-8-21T16:03:15Z
2020-08-21T14:05:28Z,42.805,6.029,13.2974,4.59977,2470.03,2020-8-21T16:06:18Z
2020-08-21T14:08:31Z,42.805,6.029,13.2976,4.59978,2469.993,2020-8-21T16:09:21Z
2020-08-21T14:11:35Z,42.805,6.029,13.2976,4.59976,2469.993,2020-8-21T16:12:24Z
2020-08-21T14:14:38Z,42.805,6.029,13.2976,4.59977,2470.017,2020-8-21T16:15:28Z
2020-08-21T14:17:41Z,42.805,6.029,13.2979,4.59976,2470.017,2020-8-21T16:18:31Z
2020-08-21T14:20:45Z,42.805,6.029,13.2980,4.59976,2469.993,2020-8-21T16:21:34Z
2020-08-21T14:23:48Z,42.805,6.029,13.2976,4.59978,2470.03,2020-8-21T16:24:37Z
2020-08-21T14:26:51Z,42.805,6.029,13.2977,4.59978,2469.993,2020-8-21T16:27:41Z
2020-08-21T14:29:54Z,42.805,6.029,13.2975,4.59978,2470.007,2020-8-21T16:30:44Z
2020-08-21T14:32:58Z,42.805,6.029,13.2974,4.59978,2470.017,2020-8-21T16:33:47Z
2020-08-21T14:36:01Z,42.805,6.029,13.2976,4.59978,2469.993,2020-8-21T16:36:51Z
2020-08-21T14:39:04Z,42.805,6.029,13.2977,4.59978,2469.993,2020-8-21T16:39:54Z
2020-08-21T14:42:07Z,42.805,6.029,13.2973,4.59978,2469.984,2020-8-21T16:42:57Z
2020-08-21T14:45:11Z,42.805,6.029,13.2973,4.59977,2469.956,2020-8-21T16:46:00Z
2020-08-21T14:48:14Z,42.805,6.029,13.2975,4.59978,2469.97,2020-8-21T16:49:03Z
2020-08-21T14:51:17Z,42.805,6.029,13.2976,4.59976,2469.993,2020-8-21T16:52:07Z
2020-08-21T14:54:20Z,42.805,6.029,13.2976,4.59978,2470.007,2020-8-21T16:55:10Z
2020-08-21T14:57:24Z,42.805,6.029,13.2975,4.59976,2469.97,2020-8-21T16:58:13Z
2020-08-21T15:00:27Z,42.805,6.029,13.2974,4.59976,2470.007,2020-8-21T17:01:17Z
2020-08-21T15:03:30Z,42.805,6.029,13.2971,4.59977,2469.993,2020-8-21T17:04:20Z
2020-08-21T15:06:33Z,42.805,6.029,13.2975,4.59976,2469.97,2020-8-21T17:07:23Z
2020-08-21T15:09:37Z,42.805,6.029,13.2976,4.59976,2469.993,2020-8-21T17:10:26Z
2020-08-21T15:12:40Z,42.805,6.029,13.2974,4.59979,2470.017,2020-8-21T17:13:30Z
2020-08-21T15:15:43Z,42.805,6.029,13.2979,4.59976,2470.017,2020-8-21T17:16:33Z